Location: Bogis-Bossey
(46.3500°N, 6.1667°E)
Time: 17:14:00
(UTC+00:00)

Sich 1 - Pass Details

Date: 17 August 2022
Orbit: 592 x 623 km, 82.5° (Epoch: 01 October)

Event Time Altitude Azimuth Distance (km) Brightness Sun altitude
Exits shadow 20:47:07 33° 90° (E) 1,030 3.8 -19.0°
Drops below altitude 10° 20:51:03 10° 27° (NNE) 1,985 5.9 -19.5°
Sets 20:53:27 0° 18° (NNE) 2,901 6.9 -19.8°
